• In Uzbekistan
  • List of Countries
  • For 7 days
  • Water Temperature
  • Satellite Maps
  • Weather Map
  • Weather Widgets
  • user-avatar
    Login

    Hourly Weather Cosmopolis

    Today, 19 February, Monday

    Time Temperature Precipitation Wind Pressure Humidity
    00:00 +21°C° 0 mm 2 mps 712 mmHg 90%
    01:00 +21°C° 0 mm 2 mps 711 mmHg 90%
    02:00 +22°C° 0 mm 1 mps 711 mmHg 90%
    03:00 +22°C° 0 mm 1 mps 711 mmHg 90%
    04:00 +21°C° 0.1 mm 1 mps 711 mmHg 90%
    05:00 +20°C° 0.1 mm 2 mps 711 mmHg 91%
    06:00 +20°C° 0.1 mm 2 mps 711 mmHg 91%
    07:00 +21°C° 0.1 mm 2 mps 711 mmHg 88%
    08:00 +22°C° 0.1 mm 3 mps 712 mmHg 85%
    09:00 +25°C° 0.1 mm 4 mps 712 mmHg 82%
    10:00 +26°C° 0.3 mm 4 mps 712 mmHg 80%
    11:00 +27°C° 0.3 mm 4 mps 712 mmHg 77%
    12:00 +28°C° 0.3 mm 4 mps 712 mmHg 74%
    13:00 +28°C° 1.4 mm 4 mps 711 mmHg 77%
    14:00 +27°C° 1.4 mm 3 mps 711 mmHg 80%
    15:00 +27°C° 1.4 mm 3 mps 710 mmHg 83%
    16:00 +26°C° 1.1 mm 2 mps 710 mmHg 85%
    17:00 +26°C° 1.1 mm 1 mps 710 mmHg 87%
    18:00 +26°C° 1.1 mm 1 mps 710 mmHg 90%
    19:00 +25°C° 0.6 mm 1 mps 710 mmHg 90%
    20:00 +24°C° 0.6 mm 1 mps 711 mmHg 91%
    21:00 +24°C° 0.6 mm 1 mps 711 mmHg 92%
    22:00 +23°C° 0 mm 2 mps 711 mmHg 93%
    23:00 +23°C° 0 mm 2 mps 711 mmHg 93%

    Tomorrow, 20 February, Tuesday

    Time Temperature Precipitation Wind Pressure Humidity
    00:00 +23°C° 0 mm 2 mps 711 mmHg 93%
    01:00 +23°C° 0 mm 2 mps 711 mmHg 93%
    02:00 +21°C° 0 mm 2 mps 710 mmHg 94%
    03:00 +21°C° 0 mm 2 mps 710 mmHg 94%
    04:00 +21°C° 0 mm 2 mps 710 mmHg 94%
    05:00 +21°C° 0 mm 2 mps 710 mmHg 94%
    06:00 +21°C° 0 mm 2 mps 710 mmHg 94%
    07:00 +23°C° 0 mm 2 mps 711 mmHg 89%
    08:00 +25°C° 0 mm 2 mps 711 mmHg 85%
    09:00 +26°C° 0 mm 3 mps 712 mmHg 80%
    10:00 +28°C° 0.1 mm 3 mps 711 mmHg 75%
    11:00 +29°C° 0.1 mm 3 mps 711 mmHg 71%
    12:00 +30°C° 0.1 mm 3 mps 711 mmHg 66%
    13:00 +31°C° 0.2 mm 3 mps 710 mmHg 65%
    14:00 +31°C° 0.2 mm 3 mps 710 mmHg 65%
    15:00 +31°C° 0.2 mm 3 mps 709 mmHg 64%
    16:00 +30°C° 1.1 mm 2 mps 709 mmHg 70%
    17:00 +29°C° 1.1 mm 2 mps 709 mmHg 77%
    18:00 +28°C° 1.1 mm 2 mps 709 mmHg 83%
    19:00 +27°C° 0.5 mm 1 mps 709 mmHg 85%
    20:00 +26°C° 0.5 mm 1 mps 710 mmHg 87%
    21:00 +25°C° 0.5 mm 1 mps 710 mmHg 90%
    22:00 +25°C° 0.1 mm 1 mps 710 mmHg 91%
    23:00 +24°C° 0.1 mm 1 mps 710 mmHg 92%

    Day after tomorrow, 21 February, Wednesday

    Time Temperature Precipitation Wind Pressure Humidity
    00:00 +24°C° 0.1 mm 1 mps 710 mmHg 93%
    01:00 +24°C° 0 mm 1 mps 710 mmHg 93%
    02:00 +23°C° 0 mm 1 mps 709 mmHg 94%
    03:00 +23°C° 0 mm 1 mps 709 mmHg 94%
    04:00 +23°C° 0.1 mm 1 mps 709 mmHg 95%
    05:00 +23°C° 0.1 mm 2 mps 709 mmHg 95%
    06:00 +23°C° 0.1 mm 2 mps 710 mmHg 95%
    07:00 +24°C° 0.5 mm 2 mps 710 mmHg 90%
    08:00 +26°C° 0.5 mm 2 mps 711 mmHg 86%
    09:00 +27°C° 0.5 mm 2 mps 711 mmHg 82%
    10:00 +28°C° 1.9 mm 2 mps 711 mmHg 78%
    11:00 +29°C° 1.9 mm 3 mps 711 mmHg 74%
    12:00 +30°C° 1.9 mm 3 mps 710 mmHg 71%
    13:00 +30°C° 1.6 mm 3 mps 710 mmHg 71%
    14:00 +30°C° 1.6 mm 3 mps 709 mmHg 72%
    15:00 +30°C° 1.6 mm 3 mps 708 mmHg 72%
    16:00 +29°C° 0.6 mm 3 mps 708 mmHg 76%
    17:00 +29°C° 0.6 mm 2 mps 708 mmHg 80%
    18:00 +28°C° 0.6 mm 2 mps 708 mmHg 85%
    19:00 +27°C° 0.2 mm 2 mps 708 mmHg 87%
    20:00 +26°C° 0.2 mm 2 mps 709 mmHg 90%
    21:00 +25°C° 0.2 mm 1 mps 709 mmHg 92%
    22:00 +25°C° 0.4 mm 1 mps 709 mmHg 93%
    23:00 +24°C° 0.4 mm 1 mps 709 mmHg 94%

    22 February, Thursday

    Time Temperature Precipitation Wind Pressure Humidity
    00:00 +24°C° 0.4 mm 1 mps 709 mmHg 95%
    01:00 +24°C° 0.2 mm 1 mps 709 mmHg 95%
    02:00 +23°C° 0.2 mm 1 mps 708 mmHg 96%
    03:00 +23°C° 0.2 mm 1 mps 708 mmHg 97%
    04:00 +23°C° 0.2 mm 1 mps 708 mmHg 97%
    05:00 +23°C° 0.2 mm 1 mps 709 mmHg 97%
    06:00 +23°C° 0.2 mm 1 mps 709 mmHg 97%
    07:00 +24°C° 0.4 mm 1 mps 709 mmHg 93%
    08:00 +25°C° 0.4 mm 1 mps 710 mmHg 89%
    09:00 +27°C° 0.4 mm 1 mps 711 mmHg 86%
    10:00 +28°C° 0.5 mm 1 mps 710 mmHg 81%
    11:00 +29°C° 0.5 mm 1 mps 710 mmHg 76%
    12:00 +30°C° 0.5 mm 1 mps 710 mmHg 71%
    13:00 +30°C° 1.2 mm 1 mps 710 mmHg 71%
    14:00 +30°C° 1.2 mm 1 mps 709 mmHg 71%
    15:00 +30°C° 1.2 mm 1 mps 709 mmHg 71%
    16:00 +29°C° 0.9 mm 2 mps 709 mmHg 75%
    17:00 +28°C° 0.9 mm 2 mps 709 mmHg 79%
    18:00 +27°C° 0.9 mm 3 mps 709 mmHg 84%
    19:00 +26°C° 0.1 mm 3 mps 709 mmHg 85%
    20:00 +25°C° 0.1 mm 3 mps 710 mmHg 87%
    21:00 +23°C° 0.1 mm 4 mps 710 mmHg 89%
    22:00 +22°C° 0 mm 4 mps 710 mmHg 89%
    23:00 +22°C° 0 mm 4 mps 711 mmHg 88%

    23 February, Friday

    Time Temperature Precipitation Wind Pressure Humidity
    00:00 +21°C° 0 mm 4 mps 711 mmHg 88%
    01:00 +21°C° 0 mm 4 mps 710 mmHg 88%
    02:00 +21°C° 0 mm 3 mps 710 mmHg 89%
    03:00 +21°C° 0 mm 3 mps 710 mmHg 89%
    04:00 +21°C° 0 mm 3 mps 710 mmHg 88%
    05:00 +21°C° 0 mm 3 mps 710 mmHg 86%
    06:00 +21°C° 0 mm 3 mps 711 mmHg 85%
    07:00 +22°C° 0 mm 3 mps 711 mmHg 83%
    08:00 +23°C° 0 mm 4 mps 712 mmHg 82%
    09:00 +25°C° 0 mm 4 mps 712 mmHg 80%
    10:00 +26°C° 0.2 mm 3 mps 712 mmHg 75%
    11:00 +28°C° 0.2 mm 3 mps 712 mmHg 71%
    12:00 +30°C° 0.2 mm 3 mps 712 mmHg 66%
    13:00 +30°C° 0.6 mm 3 mps 711 mmHg 66%
    14:00 +30°C° 0.6 mm 3 mps 711 mmHg 67%
    15:00 +30°C° 0.6 mm 3 mps 710 mmHg 67%
    16:00 +29°C° 1.2 mm 3 mps 710 mmHg 72%
    17:00 +28°C° 1.2 mm 3 mps 710 mmHg 77%
    18:00 +27°C° 1.2 mm 3 mps 711 mmHg 81%
    19:00 +25°C° 0.1 mm 4 mps 711 mmHg 83%
    20:00 +23°C° 0.1 mm 4 mps 711 mmHg 84%
    21:00 +22°C° 0.1 mm 5 mps 711 mmHg 85%
    22:00 +21°C° 0 mm 4 mps 711 mmHg 85%
    23:00 +21°C° 0 mm 4 mps 712 mmHg 86%

    24 February, Saturday

    Time Temperature Precipitation Wind Pressure Humidity
    00:00 +21°C° 0 mm 4 mps 712 mmHg 86%
    01:00 +21°C° 0 mm 4 mps 711 mmHg 85%
    02:00 +21°C° 0 mm 3 mps 711 mmHg 85%
    03:00 +21°C° 0 mm 3 mps 711 mmHg 84%
    04:00 +21°C° 0 mm 3 mps 711 mmHg 84%
    05:00 +20°C° 0 mm 3 mps 711 mmHg 85%
    06:00 +20°C° 0 mm 2 mps 711 mmHg 85%
    07:00 +21°C° 0 mm 2 mps 712 mmHg 83%
    08:00 +24°C° 0 mm 2 mps 712 mmHg 81%
    09:00 +25°C° 0 mm 2 mps 712 mmHg 78%
    10:00 +26°C° 0.2 mm 2 mps 712 mmHg 76%
    11:00 +27°C° 0.2 mm 2 mps 712 mmHg 73%
    12:00 +28°C° 0.2 mm 2 mps 712 mmHg 71%
    13:00 +29°C° 0.9 mm 2 mps 711 mmHg 71%
    14:00 +29°C° 0.9 mm 2 mps 711 mmHg 70%
    15:00 +29°C° 0.9 mm 2 mps 710 mmHg 70%
    16:00 +28°C° 0.9 mm 2 mps 710 mmHg 75%
    17:00 +27°C° 0.9 mm 3 mps 710 mmHg 79%
    18:00 +26°C° 0.9 mm 3 mps 710 mmHg 84%
    19:00 +25°C° 0.1 mm 3 mps 710 mmHg 86%
    20:00 +24°C° 0.1 mm 3 mps 711 mmHg 87%
    21:00 +22°C° 0.1 mm 4 mps 711 mmHg 89%
    22:00 +22°C° 0.1 mm 3 mps 711 mmHg 89%
    23:00 +22°C° 0.1 mm 3 mps 711 mmHg 89%
    Show more